Probability
6 6 6 3 3 3 10 6 6 3 3 6 3 3 3 3 0 0 6 61 71 74 65 52 45 39 35 39 32 32 29 35 45 39 42 29 19 13 13 19 19 19 16
10 3 3 6 3 3 6 6 6 3 3 10 10 6 6 6 6 3 3 39 68 68 68 58 58 42 45 39 39 35 35 45 48 45 32 32 19 16 16 13 29 23 13
6 6 6 6 6 6 6 6 3 6 3 3 3 6 3 3 3 6 3 3 32 61 71 65 55 61 48 35 42 45 39 42 42 45 45 35 29 29 23 19 16 23 19
10 6 6 6 10 10 10 10 6 3 3 3 3 3 3 3 3 3 0 0 6 13 42 55 58 58 55 39 39 42 42 42 42 42 42 45 42 32 23 26 23 16 19
13 6 6 3 6 3 6 3 3 3 3 3 3 3 3 3 3 3 0 0 0 0 3 19 61 61 45 45 52 48 42 39 39 35 35 39 39 42 35 29 29 19 16
19 13 10 10 6 3 3 6 3 3 3 3 6 6 3 3 3 3 0 0 0 0 0 3 10 32 52 55 55 52 48 42 45 42 39 39 39 39 32 29 32 23 19
16 16 19 13 6 3 3 3 3 3 3 6 6 3 3 3 3 3 0 0 0 0 0 0 3 3 10 35 35 45 42 39 42 39 35 29 32 39 32 23 23 19 10
19 26 13 13 10 6 3 3 3 3 3 6 6 3 3 3 3 3 3 3 0 0 0 0 0 0 0 0 6 26 32 39 35 35 35 39 39 32 29 29 19 16 10
26 23 16 16 13 6 3 3 6 3 6 6 6 6 3 3 3 3 3 3 0 0 0 0 0 0 0 0 0 10 26 29 26 32 29 29 26 23 23 19 19 16 13
29 32 29 35 16 16 6 16 6 6 6 6 6 6 6 3 3 3 3 3 3 0 0 0 0 3 0 0 0 3 10 16 23 26 29 26 26 23 26 23 19 19 13
32 35 35 35 35 23 23 29 19 19 10 10 6 3 3 3 3 3 3 3 3 3 0 0 0 0 3 0 3 3 0 3 6 13 23 29 26 26 26 26 19 13 13
32 29 35 23 26 26 26 26 23 19 13 13 10 10 6 6 3 3 3 3 3 3 0 0 0 0 0 0 0 6 3 3 3 3 6 16 16 23 19 19 19 13 13
35 32 32 29 26 26 29 26 26 16 13 13 13 13 10 10 10 6 6 3 3 3 0 0 0 0 0 0 0 3 6 0 0 0 3 3 3 10 13 13 13 13 13
35 32 32 29 26 23 26 26 19 19 19 10 10 10 10 10 10 10 10 6 3 0 0 0 0 0 0 0 0 0 0 0 0 0 0 0 3 3 3 6 10 10 6
35 29 29 29 26 23 26 23 23 23 16 13 10 10 10 10 6 6 6 6 6 3 0 0 0 0 0 0 0 0 0 0 0 0 0 0 0 0 0 0 0 0 0
32 26 26 26 23 23 19 19 19 16 16 13 10 10 10 6 6 6 6 6 6 6 3 0 0 0 0 0 0 0 0 0 0 0 0 0 0 0 0 0 0 0 0
29 26 26 26 23 23 19 19 19 16 13 10 10 10 6 6 6 6 6 6 6 3 6 3 0 0 0 0 0 0 0 0 0 0 0 0 0 0 0 0 0 0 0
26 26 23 23 19 19 19 19 19 19 13 10 10 6 6 6 6 6 6 6 6 6 6 6 0 0 0 0 0 0 0 0 0 0 0 0 0 0 0 0 0 0 0
26 23 23 16 16 19 19 19 19 16 10 10 6 6 6 6 6 6 6 6 6 6 3 3 3 0 0 0 0 0 0 0 0 0 0 0 0 0 0 0 0 0 0
26 19 19 23 19 19 16 16 16 13 10 6 3 3 3 3 3 3 6 3 3 3 3 3 3 0 0 0 0 0 0 0 0 0 0 0 0 0 0 0 0 0 0
23 19 19 16 16 16 16 16 16 10 6 6 6 6 6 6 0 3 3 3 0 3 3 6 6 3 0 0 0 0 0 0 0 0 0 0 0 0 0 0 0 0 0
23 19 19 19 16 19 13 16 16 6 3 6 6 3 3 3 3 3 3 3 3 3 3 3 3 3 0 0 0 0 0 0 0 0 0 0 0 0 0 0 0 0 0
26 23 19 19 16 13 10 3 3 3 3 0 0 3 3 3 3 3 3 3 0 0 0 3 3 0 0 0 0 0 0 0 0 0 0 0 0 0 0 0 0 0 0
29 29 26 19 16 6 3 3 0 0 3 3 0 3 3 3 3 3 3 3 3 3 0 0 0 0 0 0 0 0 0 0 0 0 0 0 0 0 0 0 0 0 0
26 29 19 16 13 3 0 0 0 0 0 0 0 0 3 6 3 3 3 3 3 3 3 0 0 0 0 0 0 0 0 0 0 0 0 0 0 0 0 0 0 0 0
23 23 19 19 16 6 0 0 0 0 0 0 0 0 3 3 6 3 3 3 3 3 3 3 0 0 0 0 0 0 0 0 0 0 0 0 0 0 0 0 0 0 0
Height
5887 5888 5888 5888 5889 5889 5890 5890 5891 5891 5891 5891 5891 5891 5892 5892 5893 5893 5893 5893 5893 5892 5893 5893 5892 5892 5892 5892 5892 5891 5891 5891 5890 5889 5889 5888 5888 5887 5887 5887 5887 5886 5886
5888 5888 5889 5889 5889 5890 5890 5890 5891 5891 5891 5891 5892 5892 5892 5892 5892 5892 5892 5892 5892 5892 5892 5892 5892 5892 5892 5891 5891 5891 5890 5890 5889 5888 5887 5887 5886 5886 5885 5885 5885 5884 5884
5888 5888 5889 5889 5890 5890 5890 5891 5891 5891 5891 5891 5892 5892 5892 5892 5892 5891 5891 5891 5891 5891 5891 5891 5891 5891 5890 5890 5890 5889 5888 5888 5887 5886 5886 5885 5884 5884 5883 5883 5882 5882 5882
5888 5889 5889 5889 5890 5890 5890 5891 5891 5891 5891 5891 5891 5891 5891 5891 5891 5890 5890 5890 5890 5890 5890 5890 5889 5889 5889 5888 5888 5887 5886 5886 5885 5884 5884 5883 5882 5882 5881 5880 5880 5879 5879
5889 5889 5890 5890 5890 5890 5890 5890 5890 5891 5890 5891 5891 5891 5890 5890 5889 5889 5889 5889 5888 5888 5888 5888 5888 5887 5887 5886 5885 5885 5884 5883 5883 5882 5881 5881 5880 5879 5879 5878 5877 5876 5876
5890 5890 5890 5890 5890 5890 5890 5890 5890 5890 5890 5890 5890 5889 5889 5889 5888 5888 5887 5887 5887 5886 5886 5886 5885 5885 5884 5884 5883 5882 5881 5881 5880 5879 5878 5878 5877 5877 5876 5875 5874 5874 5873
5890 5890 5890 5890 5890 5890 5890 5890 5889 5889 5889 5889 5888 5888 5888 5887 5887 5886 5886 5885 5885 5884 5884 5883 5883 5882 5881 5881 5880 5880 5879 5878 5877 5876 5875 5874 5874 5873 5873 5872 5871 5870 5870
5891 5891 5891 5890 5890 5890 5889 5889 5888 5888 5888 5887 5887 5887 5886 5887 5885 5885 5884 5883 5882 5882 5881 5881 5880 5879 5879 5878 5878 5877 5876 5875 5874 5873 5872 5871 5870 5869 5869 5868 5867 5866 5866
5892 5891 5891 5890 5890 5889 5889 5888 5888 5887 5887 5886 5886 5886 5885 5884 5883 5883 5882 5881 5880 5880 5878 5877 5877 5876 5876 5875 5874 5874 5873 5871 5870 5869 5868 5866 5865 5865 5864 5864 5863 5862 5861
5893 5892 5891 5890 5889 5889 5888 5887 5887 5886 5886 5885 5884 5883 5883 5882 5882 5881 5880 5879 5878 5877 5876 5875 5874 5874 5873 5872 5871 5870 5869 5867 5866 5864 5863 5862 5861 5861 5860 5859 5858 5857 5856
5894 5892 5891 5890 5889 5888 5887 5886 5885 5885 5884 5883 5882 5882 5881 5880 5879 5879 5878 5877 5876 5875 5874 5873 5872 5871 5870 5869 5868 5866 5865 5863 5862 5860 5859 5858 5857 5856 5856 5855 5854 5852 5851
5894 5893 5892 5890 5889 5887 5886 5885 5884 5883 5882 5881 5880 5880 5879 5878 5877 5876 5875 5874 5873 5873 5871 5870 5869 5868 5867 5865 5864 5863 5861 5859 5858 5856 5856 5855 5853 5852 5851 5850 5849 5848 5846
5895 5893 5892 5890 5889 5887 5886 5884 5883 5882 5880 5879 5878 5877 5876 5875 5874 5873 5872 5871 5870 5869 5868 5867 5866 5864 5863 5862 5860 5858 5857 5856 5855 5853 5852 5850 5849 5848 5847 5846 5844 5843 5842
5895 5893 5892 5890 5888 5886 5885 5883 5882 5880 5879 5877 5876 5875 5873 5872 5871 5870 5869 5868 5867 5866 5865 5863 5862 5860 5859 5857 5856 5854 5853 5852 5850 5849 5847 5846 5844 5843 5842 5840 5839 5838 5836
5895 5893 5891 5889 5887 5885 5883 5881 5880 5878 5877 5875 5873 5872 5871 5869 5868 5867 5866 5865 5864 5863 5861 5859 5858 5856 5854 5853 5851 5850 5848 5847 5845 5844 5842 5841 5839 5838 5836 5835 5833 5832 5830
5894 5892 5890 5888 5886 5884 5881 5880 5878 5876 5875 5873 5871 5869 5868 5867 5865 5864 5863 5861 5860 5859 5857 5856 5854 5852 5850 5848 5847 5845 5844 5842 5840 5839 5837 5835 5834 5832 5830 5829 5827 5825 5823
5894 5891 5889 5886 5884 5882 5880 5878 5876 5874 5872 5870 5868 5866 5865 5863 5862 5860 5859 5857 5856 5854 5853 5851 5849 5847 5846 5844 5842 5840 5838 5837 5835 5833 5831 5829 5827 5825 5824 5822 5820 5818 5816
5892 5890 5887 5885 5882 5880 5878 5876 5874 5872 5870 5867 5865 5863 5861 5859 5858 5856 5854 5853 5851 5850 5848 5846 5844 5842 5841 5839 5837 5835 5833 5831 5829 5827 5825 5823 5821 5819 5817 5815 5813 5811 5809
5891 5888 5886 5883 5880 5878 5875 5873 5871 5868 5866 5864 5862 5859 5857 5855 5853 5851 5850 5848 5846 5844 5843 5841 5839 5837 5835 5833 5831 5829 5827 5825 5822 5820 5818 5816 5814 5812 5810 5808 5806 5804 5802
5888 5886 5884 5881 5878 5876 5873 5871 5868 5865 5863 5860 5858 5856 5853 5851 5849 5847 5845 5843 5841 5839 5838 5836 5834 5832 5830 5827 5825 5823 5821 5818 5816 5814 5812 5809 5807 5805 5803 5801 5799 5796 5794
5886 5883 5881 5878 5875 5873 5870 5867 5865 5862 5859 5857 5854 5852 5849 5847 5844 5842 5840 5838 5836 5834 5832 5830 5828 5826 5824 5821 5819 5816 5814 5811 5809 5807 5805 5802 5800 5798 5795 5793 5791 5789 5786
5883 5880 5878 5875 5872 5869 5866 5864 5861 5858 5856 5853 5851 5848 5845 5842 5840 5837 5835 5833 5831 5828 5826 5824 5822 5819 5817 5814 5812 5809 5807 5804 5802 5800 5797 5795 5792 5789 5787 5785 5783 5781 5779
5879 5877 5874 5871 5868 5865 5862 5860 5857 5854 5852 5849 5846 5843 5841 5838 5835 5832 5829 5827 5825 5822 5820 5817 5815 5812 5810 5807 5805 5802 5799 5797 5794 5792 5789 5786 5784 5781 5779 5777 5775 5773 5771
5874 5872 5869 5867 5864 5861 5858 5855 5852 5849 5847 5844 5841 5838 5836 5833 5830 5826 5824 5821 5818 5815 5813 5810 5808 5805 5802 5799 5796 5794 5792 5789 5786 5783 5781 5779 5776 5774 5771 5769 5767 5765 5762
5869 5866 5864 5861 5859 5856 5853 5849 5846 5844 5841 5838 5835 5832 5829 5826 5823 5820 5817 5814 5811 5808 5806 5803 5800 5797 5794 5791 5789 5786 5783 5780 5778 5775 5773 5771 5768 5765 5763 5761 5758 5756 5754
5863 5860 5858 5855 5852 5850 5847 5844 5841 5838 5835 5832 5829 5826 5823 5819 5816 5813 5810 5807 5804 5801 5798 5795 5792 5789 5786 5783 5780 5777 5774 5772 5769 5767 5765 5762 5760 5757 5755 5752 5750 5747 5745
Wind_Speed
5 5 6 6 6 5 5 4 4 3 3 3 3 3 3 3 3 3 3 3 3 3 3 3 3 3 3 3 3 3 4 4 4 4 5 5 5 6 6 6 7 7 7
5 5 5 5 5 4 4 3 3 2 2 3 3 3 2 2 3 3 3 4 3 3 4 4 4 4 4 5 5 5 5 6 6 6 7 7 7 7 8 8 9 9 9
5 5 4 4 3 3 3 3 2 2 2 2 3 3 3 3 4 4 4 4 4 4 5 5 5 5 6 6 6 6 7 7 7 8 8 8 8 9 9 10 10 10 11
5 4 4 4 3 3 2 2 1 1 2 2 2 3 4 4 5 6 6 6 6 6 6 6 7 7 7 7 8 8 8 9 9 9 9 10 10 10 11 11 12 12 12
5 4 4 3 3 2 1 1 1 2 2 3 3 4 5 5 6 7 7 8 7 8 8 8 9 9 9 9 9 9 10 10 11 11 11 12 12 12 12 13 13 14 14
5 5 4 3 3 2 0 1 1 2 2 3 4 5 5 5 6 7 8 8 9 9 9 9 10 10 10 10 10 11 11 12 12 12 13 13 14 14 14 14 14 14 15
6 5 4 3 3 2 1 0 1 2 2 3 4 4 5 5 6 7 7 9 10 10 10 10 10 10 10 11 11 12 12 12 13 13 14 14 15 15 15 16 16 16 16
6 6 5 4 3 3 2 1 1 2 3 3 4 5 6 6 6 6 7 8 9 9 10 10 10 11 11 12 12 12 13 13 14 15 15 16 16 16 17 18 18 17 18
7 6 5 5 4 3 3 2 1 2 3 4 5 5 6 7 7 7 7 8 7 8 9 10 11 11 12 12 13 14 15 15 16 16 16 17 17 18 18 18 18 18 18
8 7 6 5 4 3 3 3 3 3 4 5 5 6 6 7 6 7 7 8 8 9 9 9 10 11 12 13 14 15 17 17 17 16 16 17 18 18 19 19 19 19 19
9 9 8 7 6 5 4 4 4 4 5 5 5 6 7 7 7 8 9 9 9 10 10 11 11 11 12 13 15 16 16 17 17 17 16 17 18 18 19 20 19 20 20
9 9 8 8 7 7 5 5 5 5 5 6 6 8 8 8 8 9 10 10 10 11 12 12 13 13 14 14 15 16 16 16 17 17 18 18 19 19 19 19 19 20 20
10 10 9 9 8 7 7 6 6 6 7 7 8 9 9 10 10 10 11 11 12 12 13 14 14 15 15 16 16 17 17 17 17 18 18 19 19 19 19 20 20 21 21
10 10 10 10 10 9 8 7 7 8 8 8 9 9 10 10 10 11 12 12 12 13 14 14 15 16 17 16 17 17 18 18 18 18 18 19 19 20 20 21 21 22 22
10 11 11 11 10 10 9 9 9 9 10 10 10 11 11 12 12 13 13 14 14 15 15 15 16 16 17 17 18 18 19 19 19 19 19 20 20 21 21 22 23 24 25
12 12 12 11 11 11 10 10 10 10 11 11 12 12 12 13 13 14 15 15 15 15 16 17 17 17 18 18 18 19 20 20 20 21 21 21 21 22 23 23 24 24 25
12 13 13 13 13 13 12 12 12 12 12 13 13 13 13 14 14 15 15 15 16 17 18 18 18 18 18 19 20 21 21 21 21 22 22 22 23 23 23 23 24 25 25
13 13 14 14 15 14 14 13 13 13 14 14 14 15 15 15 15 15 16 17 17 18 18 18 18 19 19 20 21 21 22 22 22 23 23 24 24 24 24 24 25 25 25
13 14 15 15 15 15 15 15 15 15 15 15 15 16 16 16 16 16 17 17 18 19 19 19 19 20 21 21 21 22 23 23 23 23 24 25 25 25 25 25 26 26 27
14 15 16 16 16 16 16 16 16 15 15 16 16 17 17 17 17 17 17 18 19 19 20 20 21 21 22 23 23 23 24 25 25 26 26 26 26 26 26 26 26 27 27
15 15 16 17 17 17 17 17 17 17 17 17 17 17 17 17 18 18 19 19 19 19 20 21 22 24 24 25 24 24 25 26 26 26 26 26 26 27 27 27 27 27 27
16 16 16 17 18 18 18 18 18 18 18 18 18 18 18 18 19 19 20 20 20 21 21 23 24 25 25 26 26 26 26 26 26 26 27 27 27 27 27 27 27 27 28
18 18 18 18 19 20 20 20 20 20 20 20 20 19 20 20 20 21 21 21 22 23 23 24 24 25 26 26 26 26 26 27 27 27 27 27 27 27 27 27 27 27 28
19 19 20 20 21 22 22 22 22 22 22 22 22 22 22 23 22 22 22 23 23 24 25 26 26 27 27 26 27 27 27 28 28 28 27 27 28 28 29 28 29 29 30
21 21 22 22 22 23 23 23 23 23 23 23 24 24 24 24 24 24 25 25 25 25 26 27 27 27 27 27 27 28 28 28 29 29 28 28 28 28 29 29 29 29 30
24 24 24 24 24 24 25 24 25 25 25 25 26 26 26 26 26 26 27 27 26 26 27 27 27 28 28 28 29 29 29 29 29 29 28 28 28 28 28 29 29 29 29
Wind_Direction
132 127 127 134 132 131 133 134 135 133 141 143 150 163 161 175 170 176 186 192 195 201 215 223 235 244 253 264 267 268 272 283 286 286 282 282 279 269 269 273 275 275 272
133 136 134 131 134 140 147 149 150 151 153 161 173 182 188 200 207 216 220 220 220 226 233 239 248 254 262 268 268 272 274 276 279 281 279 278 278 274 271 274 275 273 271
126 135 137 136 140 148 159 159 165 190 181 177 186 206 224 236 240 240 238 235 237 241 245 250 254 257 260 266 268 273 274 275 277 279 278 276 276 275 273 275 275 270 270
110 122 127 136 148 153 156 158 168 217 216 212 217 228 245 253 251 251 253 251 249 250 253 255 256 259 262 265 270 274 274 275 277 278 277 278 278 277 277 276 272 271 271
104 112 117 115 125 154 171 187 235 226 237 238 247 251 256 262 262 259 259 257 254 255 258 258 258 262 265 267 269 271 273 273 274 277 280 278 278 279 279 277 273 272 272
93 101 108 100 99 108 121 275 247 246 270 263 265 265 263 265 266 267 266 263 259 260 261 263 261 264 266 268 271 273 274 274 273 277 279 278 277 277 277 277 275 274 273
83 84 87 88 86 71 28 343 268 273 274 274 276 280 282 276 276 272 273 269 264 263 268 268 267 268 268 269 273 276 277 275 275 276 279 278 276 275 275 275 276 273 271
70 72 71 70 70 51 30 7 300 293 292 286 282 280 284 285 281 275 277 271 267 268 270 269 268 268 270 272 274 277 278 278 278 277 279 279 276 274 274 275 275 273 273
60 61 59 51 46 32 14 350 314 300 291 290 288 289 287 286 283 281 285 284 278 277 276 274 271 271 274 275 278 280 280 279 278 277 279 277 277 275 273 275 275 274 274
54 49 44 33 26 18 3 344 320 305 292 287 287 289 288 287 291 291 287 288 287 287 288 285 279 278 280 276 279 284 281 282 277 275 278 278 276 275 273 272 273 274 273
47 44 40 31 21 8 353 347 339 323 305 296 292 291 293 289 291 291 289 289 288 287 285 287 288 288 286 284 283 287 286 282 280 279 281 282 278 276 275 272 272 273 272
42 37 32 25 20 12 1 351 341 333 322 305 297 292 292 294 294 294 292 291 290 291 289 288 290 291 290 288 287 288 287 285 285 284 284 282 280 278 276 273 274 276 275
34 29 24 19 16 12 6 356 344 333 326 318 308 301 297 296 294 297 296 294 292 293 291 290 291 291 291 290 290 290 290 287 284 284 285 284 282 280 277 278 278 278 278
23 21 17 13 9 5 359 352 346 339 331 325 319 311 306 302 297 299 300 298 297 297 295 294 294 293 291 291 292 293 293 292 289 288 285 284 282 281 279 278 278 280 279
14 11 7 2 357 352 344 339 339 338 334 326 320 313 308 303 297 297 297 296 295 297 297 296 296 294 293 292 293 293 293 292 291 290 288 286 284 283 280 280 280 280 279
7 4 2 359 355 349 340 332 331 330 327 323 319 314 308 304 300 299 298 296 295 296 296 296 295 294 294 293 293 293 292 292 290 289 288 287 286 284 284 283 282 283 280
360 357 356 354 350 348 345 336 329 326 323 320 316 314 310 306 302 299 297 296 295 296 297 297 296 295 295 295 294 293 292 292 291 291 289 288 286 286 286 285 285 284 282
350 350 350 350 347 344 340 336 330 327 323 320 316 313 311 308 303 300 297 296 295 295 294 294 296 297 296 295 295 296 295 293 292 291 289 289 289 288 287 287 286 287 285
340 341 343 343 343 343 340 334 330 326 324 323 321 317 314 312 308 304 299 297 297 296 295 295 295 294 295 295 295 295 295 294 293 291 290 289 289 289 288 288 286 284 285
334 336 339 339 338 336 337 336 332 330 327 325 324 322 318 316 312 309 304 300 297 295 295 294 294 294 295 295 295 295 295 294 292 291 291 291 290 288 288 288 287 286 285
330 330 332 334 334 332 331 330 330 327 325 324 324 321 319 318 316 312 308 304 299 296 296 295 295 295 295 295 296 297 296 293 292 292 292 291 290 289 288 287 287 286 286
324 325 327 328 328 326 325 324 325 324 322 321 321 319 317 318 317 315 311 306 303 300 299 298 297 297 297 296 295 295 295 294 293 293 292 291 291 289 288 287 287 287 286
316 316 319 321 322 323 322 321 320 320 319 318 317 318 317 315 316 314 312 308 304 302 299 299 298 298 298 297 296 295 295 294 293 293 291 290 289 288 288 287 286 286 286
308 310 312 314 316 318 318 317 315 315 315 315 314 313 315 314 312 312 311 309 305 302 300 299 299 299 299 298 296 295 294 293 294 292 291 290 290 289 289 288 287 288 287
305 306 306 308 310 312 313 313 312 312 311 311 310 310 311 312 310 311 310 308 306 304 302 301 299 299 298 298 296 295 294 294 293 292 291 290 290 289 289 289 288 288 288
302 304 303 304 306 309 310 310 310 309 308 307 308 308 309 309 308 308 308 306 304 303 303 303 301 299 298 298 297 295 294 293 293 292 292 291 290 289 290 290 289 288 288